Location: Bartshausen
(51.8454°N, 9.8167°E)
Time: 10:01:38
(UTC+00:00)

COSMOS 2455 - Pass Details

Date: 08 November 2025
Orbit: 898 x 910 km, 67.1° (Epoch: 12 December)

Event Time Altitude Azimuth Distance (km) Brightness Sun altitude
Exits shadow 03:45:05 54° 309° (NW) 1,095 2.9 -25.2°
Maximum altitude 03:45:17 54° 316° (NW) 1,093 3.0 -25.2°
Drops below altitude 10° 03:51:13 10° 34° (NE) 2,607 5.7 -24.3°
Sets 03:53:49 0° 39° (NE) 3,552 6.5 -23.9°
